Location: Oshawa
(43.9000°N, 78.8670°W)
Time: 16:02:50
(UTC-04:00)

Courier 1B - All Passes

Search period start: 23 September 2017 00:00
Search period end: 03 October 2017 00:00
Orbit: 963 x 1209 km, 28.3° (Epoch: 23 September)

Date Brightness Start Highest point End Pass type
(mag) Time Alt. Az. Time Alt. Az. Time Alt. Az.
23 Sep - 12:09:21 10° S 12:11:29 12° SSE 12:13:35 10° SE daylight
23 Sep - 13:59:57 10° SW 14:04:19 19° S 14:08:40 10° SE daylight
23 Sep - 15:53:05 10° SW 15:57:14 18° S 16:01:26 10° SSE daylight
24 Sep - 13:06:41 10° SSW 13:10:52 18° S 13:15:00 10° SE daylight
24 Sep - 14:59:25 10° SW 15:03:47 19° S 15:08:10 10° SE daylight
24 Sep - 16:54:22 10° SW 16:56:37 12° SSW 16:58:55 10° S daylight
25 Sep - 12:13:33 10° SSW 12:17:25 16° SSE 12:21:13 10° SE daylight
25 Sep - 14:05:49 10° SW 14:10:20 20° S 14:14:49 10° SE daylight
25 Sep - 15:59:58 10° SW 16:03:13 14° SSW 16:06:28 10° SSE daylight
26 Sep - 11:20:36 10° SSW 11:23:58 14° SSE 11:27:15 10° SE daylight
26 Sep - 13:12:17 10° SW 13:16:53 20° S 13:21:23 10° SE daylight
26 Sep - 15:05:56 10° SW 15:09:47 16° SSW 15:13:37 10° SSE daylight
27 Sep - 10:28:03 10° S 10:30:30 12° SSE 10:32:55 10° SE daylight
27 Sep - 12:18:50 10° SW 12:23:24 19° S 12:27:52 10° SE daylight
27 Sep - 14:12:04 10° SW 14:16:20 18° S 14:20:34 10° SSE daylight
28 Sep - 11:25:27 10° SSW 11:29:55 18° S 11:34:15 10° SE daylight
28 Sep - 13:18:17 10° SW 13:22:53 20° S 13:27:23 10° SE daylight
28 Sep - 15:13:14 10° SW 15:15:43 12° SSW 15:18:11 10° S daylight
29 Sep - 10:32:12 10° SSW 10:36:25 17° SSE 10:40:31 10° SE daylight
29 Sep - 12:24:36 10° SW 12:29:24 21° S 12:34:05 10° SE daylight
29 Sep - 14:18:47 10° SW 14:22:18 15° SSW 14:25:46 10° SSE daylight
30 Sep - 09:39:09 10° SSW 09:42:55 15° SSE 09:46:34 10° SE daylight
30 Sep - 11:30:58 10° SW 11:35:55 21° S 11:40:41 10° SE daylight
30 Sep - 13:24:40 10° SW 13:28:52 17° SSW 13:32:57 10° SSE daylight
01 Oct - 08:46:28 10° S 08:49:24 13° SSE 08:52:17 10° SE daylight
01 Oct - 10:37:24 10° SW 10:42:23 20° S 10:47:11 10° SE daylight
01 Oct - 12:30:43 10° SW 12:35:23 19° S 12:39:55 10° SE daylight
01 Oct - 14:26:59 10° SSW 14:28:11 10° SSW 14:29:23 10° SSW daylight
02 Oct - 07:54:57 10° SSE 07:55:53 10° SSE 07:56:48 10° SSE daylight
02 Oct - 09:43:57 10° SSW 09:48:51 19° S 09:53:34 10° SE daylight
02 Oct - 11:36:52 10° SW 11:41:54 21° S 11:46:44 10° SE daylight
02 Oct - 13:31:41 10° SW 13:34:46 13° SSW 13:37:48 10° S daylight
